Time,TemperatureF,DewpointF,PressureIn,WindDirection,WindDirectionDegrees,WindSpeedMPH,WindSpeedGustMPH,Humidity,HourlyPrecipIn,Conditions,Clouds,dailyrainin,SoftwareType,DateUTC
2013-07-15 00:02:00,75.0,71.0,30.06,North,0,0.0,0.0,86,0.00,,,0.05,,2013-07-15 05:02:00,
2013-07-15 00:11:00,75.0,71.0,30.06,North,0,0.0,0.0,86,0.00,,,0.05,,2013-07-15 05:11:00,
2013-07-15 00:21:00,75.0,71.0,30.06,East,98,0.0,1.0,86,0.00,,,0.05,,2013-07-15 05:21:00,
2013-07-15 00:32:00,75.0,70.0,30.06,North,0,0.0,0.0,85,0.00,,,0.05,,2013-07-15 05:32:00,
2013-07-15 00:43:00,76.0,71.0,30.06,East,99,0.0,4.0,84,0.00,,,0.05,,2013-07-15 05:43:00,
2013-07-15 00:53:00,76.0,71.0,30.06,East,87,0.0,6.0,84,0.00,,,0.05,,2013-07-15 05:53:00,
2013-07-15 01:02:00,76.0,70.0,30.05,East,84,0.0,5.0,83,0.00,,,0.05,,2013-07-15 06:02:00,
2013-07-15 01:11:00,76.0,70.0,30.05,East,91,0.0,5.0,82,0.00,,,0.05,,2013-07-15 06:11:00,
2013-07-15 01:22:00,76.0,70.0,30.06,East,101,0.0,5.0,83,0.00,,,0.05,,2013-07-15 06:22:00,
2013-07-15 01:32:00,76.0,70.0,30.06,East,90,0.0,5.0,83,0.00,,,0.05,,2013-07-15 06:32:00,
2013-07-15 01:42:00,76.0,70.0,30.06,East,91,0.0,2.0,83,0.00,,,0.05,,2013-07-15 06:42:00,
2013-07-15 01:53:00,76.0,71.0,30.06,East,91,0.0,3.0,84,0.00,,,0.05,,2013-07-15 06:53:00,
2013-07-15 02:01:00,76.0,71.0,30.06,East,87,0.0,3.0,85,0.00,,,0.05,,2013-07-15 07:01:00,
2013-07-15 02:11:00,76.0,71.0,30.06,East,87,0.0,5.0,85,0.00,,,0.05,,2013-07-15 07:11:00,
2013-07-15 02:21:00,76.0,71.0,30.05,East,86,0.0,3.0,85,0.00,,,0.05,,2013-07-15 07:21:00,
2013-07-15 02:33:00,76.0,71.0,30.06,East,90,0.0,4.0,85,0.00,,,0.05,,2013-07-15 07:33:00,
2013-07-15 02:43:00,75.0,70.0,30.06,East,87,0.0,5.0,85,0.00,,,0.05,,2013-07-15 07:43:00,
2013-07-15 02:53:00,75.0,71.0,30.06,North,0,0.0,0.0,86,0.00,,,0.05,,2013-07-15 07:53:00,
2013-07-15 03:01:00,75.0,71.0,30.06,East,89,0.0,2.0,86,0.00,,,0.05,,2013-07-15 08:01:00,
2013-07-15 03:11:00,75.0,71.0,30.06,North,0,0.0,0.0,87,0.00,,,0.05,,2013-07-15 08:11:00,
2013-07-15 03:22:00,75.0,71.0,30.06,North,0,0.0,0.0,87,0.00,,,0.05,,2013-07-15 08:22:00,
2013-07-15 03:32:00,74.0,70.0,30.07,North,0,0.0,0.0,88,0.00,,,0.05,,2013-07-15 08:32:00,
2013-07-15 03:43:00,74.0,70.0,30.07,North,0,0.0,0.0,88,0.00,,,0.05,,2013-07-15 08:43:00,
2013-07-15 03:53:00,74.0,71.0,30.07,North,0,0.0,0.0,89,0.00,,,0.05,,2013-07-15 08:53:00,
2013-07-15 04:02:00,74.0,71.0,30.07,North,0,0.0,0.0,89,0.00,,,0.05,,2013-07-15 09:02:00,
2013-07-15 04:11:00,74.0,71.0,30.07,East,100,0.0,3.0,90,0.00,,,0.05,,2013-07-15 09:11:00,
2013-07-15 04:22:00,74.0,71.0,30.07,North,0,0.0,0.0,89,0.00,,,0.05,,2013-07-15 09:22:00,
2013-07-15 04:32:00,74.0,71.0,30.07,North,0,0.0,0.0,90,0.00,,,0.05,,2013-07-15 09:32:00,
2013-07-15 04:43:00,74.0,71.0,30.07,East,93,0.0,4.0,90,0.00,,,0.05,,2013-07-15 09:43:00,
2013-07-15 04:52:00,74.0,71.0,30.07,East,88,0.0,4.0,89,0.00,,,0.05,,2013-07-15 09:52:00,
2013-07-15 05:02:00,74.0,71.0,30.07,East,93,1.0,6.0,89,0.00,,,0.05,,2013-07-15 10:02:00,
2013-07-15 05:11:00,74.0,71.0,30.07,East,100,1.0,6.0,89,0.00,,,0.05,,2013-07-15 10:11:00,
2013-07-15 05:22:00,74.0,70.0,30.08,East,94,1.0,6.0,88,0.00,,,0.05,,2013-07-15 10:22:00,
2013-07-15 05:32:00,74.0,70.0,30.08,East,97,2.0,6.0,88,0.00,,,0.05,,2013-07-15 10:32:00,
2013-07-15 05:43:00,74.0,70.0,30.08,ESE,102,2.0,7.0,88,0.00,,,0.05,,2013-07-15 10:43:00,
2013-07-15 05:52:00,74.0,70.0,30.09,East,96,0.0,5.0,88,0.00,,,0.05,,2013-07-15 10:52:00,
2013-07-15 06:01:00,74.0,70.0,30.10,ESE,108,0.0,5.0,88,0.00,,,0.05,,2013-07-15 11:01:00,
2013-07-15 06:11:00,74.0,70.0,30.10,East,97,1.0,7.0,88,0.00,,,0.05,,2013-07-15 11:11:00,
2013-07-15 06:22:00,74.0,70.0,30.10,East,90,0.0,5.0,88,0.00,,,0.05,,2013-07-15 11:22:00,
2013-07-15 06:32:00,74.0,70.0,30.11,East,90,0.0,5.0,88,0.00,,,0.05,,2013-07-15 11:32:00,
2013-07-15 06:42:00,74.0,70.0,30.11,ESE,102,0.0,6.0,87,0.00,,,0.05,,2013-07-15 11:42:00,
2013-07-15 06:52:00,75.0,71.0,30.11,ESE,103,1.0,7.0,86,0.00,,,0.05,,2013-07-15 11:52:00,
2013-07-15 07:11:00,76.0,71.0,30.12,ESE,106,1.0,7.0,84,0.00,,,0.05,,2013-07-15 12:11:00,
2013-07-15 07:22:00,76.0,70.0,30.12,East,98,1.0,6.0,83,0.00,,,0.05,,2013-07-15 12:22:00,
2013-07-15 07:32:00,77.0,71.0,30.12,East,98,3.0,8.0,82,0.00,,,0.05,,2013-07-15 12:32:00,
2013-07-15 07:42:00,77.0,71.0,30.12,East,98,3.0,8.0,82,0.00,,,0.05,,2013-07-15 12:42:00,
2013-07-15 07:52:00,78.0,72.0,30.13,ESE,105,2.0,8.0,81,0.00,,,0.05,,2013-07-15 12:52:00,
2013-07-15 08:01:00,78.0,71.0,30.13,ESE,103,2.0,7.0,80,0.00,,,0.05,,2013-07-15 13:01:00,
2013-07-15 08:11:00,79.0,72.0,30.14,ESE,112,1.0,8.0,79,0.00,,,0.05,,2013-07-15 13:11:00,
2013-07-15 08:22:00,78.0,71.0,30.14,ESE,113,2.0,8.0,78,0.00,,,0.05,,2013-07-15 13:22:00,
2013-07-15 08:33:00,79.0,71.0,30.14,ESE,106,1.0,11.0,77,0.00,,,0.05,,2013-07-15 13:33:00,
2013-07-15 08:43:00,79.0,71.0,30.14,ESE,104,1.0,6.0,76,0.00,,,0.05,,2013-07-15 13:43:00,
2013-07-15 08:53:00,79.0,70.0,30.14,ESE,116,2.0,8.0,75,0.00,,,0.05,,2013-07-15 13:53:00,
2013-07-15 09:02:00,80.0,71.0,30.14,ESE,119,1.0,9.0,74,0.00,,,0.05,,2013-07-15 14:02:00,
2013-07-15 09:11:00,80.0,71.0,30.14,ESE,120,2.0,12.0,74,0.00,,,0.05,,2013-07-15 14:11:00,
2013-07-15 09:22:00,80.0,71.0,30.14,SE,138,1.0,7.0,75,0.00,,,0.05,,2013-07-15 14:22:00,
2013-07-15 09:33:00,81.0,72.0,30.14,SSW,194,1.0,10.0,74,0.00,,,0.05,,2013-07-15 14:33:00,
2013-07-15 09:42:00,82.0,72.0,30.14,ESE,110,1.0,9.0,72,0.00,,,0.05,,2013-07-15 14:42:00,
2013-07-15 09:56:00,81.0,71.0,30.14,South,179,1.0,7.0,72,0.00,,,0.05,,2013-07-15 14:56:00,
2013-07-15 10:03:00,80.0,71.0,30.15,SSE,153,1.0,6.0,73,0.00,,,0.05,,2013-07-15 15:03:00,
2013-07-15 10:27:00,82.0,72.0,30.15,East,99,1.0,6.0,72,0.00,,,0.05,,2013-07-15 15:27:00,
2013-07-15 10:45:00,82.0,71.0,30.16,ESE,111,1.0,8.0,70,0.00,,,0.05,,2013-07-15 15:45:00,
2013-07-15 10:53:00,82.0,71.0,30.16,South,172,1.0,6.0,70,0.00,,,0.05,,2013-07-15 15:53:00,
2013-07-15 11:07:00,82.0,72.0,30.16,SSW,195,1.0,6.0,73,0.00,,,0.05,,2013-07-15 16:07:00,
2013-07-15 11:15:00,83.0,72.0,30.16,SE,130,1.0,6.0,69,0.00,,,0.05,,2013-07-15 16:15:00,
2013-07-15 11:24:00,84.0,72.0,30.15,ESE,112,2.0,8.0,68,0.00,,,0.05,,2013-07-15 16:24:00,
2013-07-15 11:33:00,84.0,72.0,30.16,ESE,110,2.0,10.0,68,0.00,,,0.05,,2013-07-15 16:33:00,
2013-07-15 11:45:00,84.0,72.0,30.16,ESE,108,1.0,6.0,68,0.00,,,0.05,,2013-07-15 16:45:00,
2013-07-15 11:52:00,83.0,72.0,30.16,South,184,0.0,6.0,70,0.00,,,0.05,,2013-07-15 16:52:00,
2013-07-15 12:05:00,83.0,72.0,30.15,ESE,114,0.0,3.0,69,0.00,,,0.05,,2013-07-15 17:05:00,
2013-07-15 12:13:00,83.0,72.0,30.15,ESE,114,0.0,3.0,69,0.00,,,0.05,,2013-07-15 17:13:00,
2013-07-15 12:23:00,83.0,72.0,30.16,ESE,112,0.0,4.0,69,0.00,,,0.05,,2013-07-15 17:23:00,
2013-07-15 12:36:00,83.0,72.0,30.16,East,101,0.0,5.0,70,0.00,,,0.05,,2013-07-15 17:36:00,
2013-07-15 12:48:00,84.0,73.0,30.15,East,92,0.0,4.0,70,0.00,,,0.05,,2013-07-15 17:48:00,
2013-07-15 12:55:00,84.0,71.0,30.15,ESE,105,0.0,5.0,66,0.00,,,0.05,,2013-07-15 17:55:00,
2013-07-15 13:05:00,84.0,72.0,30.15,East,94,2.0,7.0,67,0.00,,,0.05,,2013-07-15 18:05:00,
2013-07-15 13:27:00,82.0,72.0,30.15,ESE,108,1.0,5.0,73,0.00,,,0.05,,2013-07-15 18:27:00,
2013-07-15 13:37:00,81.0,72.0,30.15,East,93,1.0,3.0,74,0.00,,,0.05,,2013-07-15 18:37:00,
2013-07-15 13:45:00,82.0,73.0,30.15,East,82,1.0,5.0,74,0.00,,,0.05,,2013-07-15 18:45:00,
2013-07-15 14:05:00,82.0,73.0,30.14,ENE,72,0.0,3.0,74,0.00,,,0.00,,2013-07-15 19:05:00,
2013-07-15 14:11:00,83.0,73.0,30.14,East,87,1.0,4.0,73,0.00,,,0.00,,2013-07-15 19:11:00,
2013-07-15 14:24:00,83.0,73.0,30.14,East,81,1.0,6.0,72,0.00,,,0.00,,2013-07-15 19:24:00,
2013-07-15 14:46:00,84.0,72.0,30.13,ENE,67,1.0,6.0,68,0.00,,,0.00,,2013-07-15 19:46:00,
2013-07-15 14:56:00,85.0,72.0,30.13,ENE,73,1.0,6.0,65,0.00,,,0.00,,2013-07-15 19:56:00,
2013-07-15 15:06:00,85.0,73.0,30.12,East,90,2.0,7.0,67,0.00,,,0.00,,2013-07-15 20:06:00,
2013-07-15 15:16:00,85.0,73.0,30.11,East,90,1.0,5.0,68,0.00,,,0.00,,2013-07-15 20:16:00,
2013-07-15 15:27:00,86.0,72.0,30.11,East,90,1.0,7.0,64,0.00,,,0.00,,2013-07-15 20:27:00,
2013-07-15 15:37:00,86.0,72.0,30.11,East,96,1.0,6.0,63,0.00,,,0.00,,2013-07-15 20:37:00,
2013-07-15 15:43:00,85.0,72.0,30.11,East,97,1.0,6.0,65,0.00,,,0.00,,2013-07-15 20:43:00,
2013-07-15 15:54:00,85.0,72.0,30.11,East,97,1.0,6.0,65,0.00,,,0.00,,2013-07-15 20:54:00,
2013-07-15 16:02:00,85.0,72.0,30.11,East,88,0.0,5.0,66,0.00,,,0.00,,2013-07-15 21:02:00,
2013-07-15 16:12:00,86.0,73.0,30.11,ESE,114,0.0,5.0,65,0.00,,,0.00,,2013-07-15 21:12:00,
2013-07-15 16:23:00,86.0,72.0,30.10,East,93,0.0,3.0,64,0.00,,,0.00,,2013-07-15 21:23:00,
2013-07-15 16:37:00,85.0,72.0,30.10,East,91,0.0,4.0,65,0.00,,,0.00,,2013-07-15 21:37:00,
2013-07-15 16:47:00,84.0,73.0,30.11,East,91,0.0,2.0,69,0.00,,,0.00,,2013-07-15 21:47:00,
2013-07-15 16:55:00,84.0,73.0,30.10,East,101,0.0,3.0,70,0.00,,,0.00,,2013-07-15 21:55:00,
2013-07-15 17:02:00,85.0,73.0,30.10,ESE,103,0.0,3.0,67,0.00,,,0.00,,2013-07-15 22:02:00,
2013-07-15 17:17:00,86.0,73.0,30.10,ENE,70,1.0,5.0,66,0.00,,,0.00,,2013-07-15 22:17:00,
2013-07-15 17:22:00,86.0,72.0,30.09,East,86,0.0,5.0,64,0.00,,,0.00,,2013-07-15 22:22:00,
2013-07-15 17:34:00,86.0,73.0,30.09,East,88,1.0,5.0,65,0.00,,,0.00,,2013-07-15 22:34:00,
2013-07-15 17:43:00,86.0,73.0,30.09,East,95,0.0,5.0,65,0.00,,,0.00,,2013-07-15 22:43:00,
2013-07-15 17:54:00,85.0,71.0,30.09,East,89,1.0,6.0,64,0.00,,,0.00,,2013-07-15 22:54:00,
2013-07-15 18:05:00,86.0,72.0,30.09,East,86,0.0,2.0,63,0.00,,,0.00,,2013-07-15 23:05:00,
2013-07-15 18:13:00,86.0,72.0,30.09,East,93,0.0,5.0,63,0.00,,,0.00,,2013-07-15 23:13:00,
2013-07-15 18:27:00,85.0,72.0,30.09,East,89,0.0,3.0,66,0.00,,,0.00,,2013-07-15 23:27:00,
2013-07-15 18:37:00,85.0,72.0,30.09,East,95,0.0,3.0,65,0.00,,,0.00,,2013-07-15 23:37:00,
2013-07-15 18:46:00,85.0,72.0,30.09,East,93,0.0,3.0,66,0.00,,,0.00,,2013-07-15 23:46:00,
2013-07-15 18:53:00,84.0,72.0,30.10,East,93,0.0,3.0,67,0.00,,,0.00,,2013-07-15 23:53:00,
2013-07-15 19:03:00,84.0,73.0,30.10,East,91,0.0,1.0,69,0.00,,,0.00,,2013-07-16 00:03:00,
2013-07-15 19:33:00,83.0,72.0,30.11,East,91,0.0,2.0,69,0.00,,,0.00,,2013-07-16 00:33:00,
2013-07-15 19:46:00,83.0,73.0,30.11,East,91,0.0,1.0,71,0.00,,,0.00,,2013-07-16 00:46:00,
2013-07-15 20:07:00,82.0,72.0,30.11,North,0,0.0,0.0,72,0.00,,,0.00,,2013-07-16 01:07:00,
2013-07-15 20:15:00,82.0,72.0,30.11,North,0,0.0,0.0,73,0.00,,,0.00,,2013-07-16 01:15:00,
2013-07-15 20:26:00,81.0,73.0,30.11,North,0,0.0,0.0,76,0.00,,,0.00,,2013-07-16 01:26:00,
2013-07-15 20:56:00,79.0,72.0,30.12,North,0,0.0,0.0,78,0.00,,,0.00,,2013-07-16 01:56:00,
2013-07-15 21:03:00,79.0,72.0,30.12,East,91,0.0,2.0,78,0.00,,,0.00,,2013-07-16 02:03:00,
2013-07-15 21:11:00,78.0,71.0,30.13,North,0,0.0,0.0,78,0.00,,,0.00,,2013-07-16 02:11:00,
2013-07-15 21:35:00,78.0,71.0,30.14,North,0,0.0,0.0,79,0.00,,,0.00,,2013-07-16 02:35:00,
2013-07-15 21:54:00,77.0,71.0,30.15,North,0,0.0,0.0,81,0.00,,,0.00,,2013-07-16 02:54:00,
2013-07-15 22:07:00,77.0,71.0,30.15,North,0,0.0,0.0,82,0.00,,,0.00,,2013-07-16 03:07:00,
2013-07-15 22:15:00,76.0,70.0,30.15,North,0,0.0,0.0,82,0.00,,,0.00,,2013-07-16 03:15:00,
2013-07-15 22:27:00,76.0,70.0,30.15,North,0,0.0,0.0,83,0.00,,,0.00,,2013-07-16 03:27:00,
2013-07-15 22:38:00,76.0,71.0,30.15,North,0,0.0,0.0,84,0.00,,,0.00,,2013-07-16 03:38:00,
2013-07-15 22:47:00,75.0,70.0,30.15,North,0,0.0,0.0,85,0.00,,,0.00,,2013-07-16 03:47:00,
2013-07-15 22:56:00,75.0,71.0,30.16,North,0,0.0,0.0,86,0.00,,,0.00,,2013-07-16 03:56:00,
2013-07-15 23:01:00,75.0,71.0,30.16,North,0,0.0,0.0,86,0.00,,,0.00,,2013-07-16 04:01:00,
2013-07-15 23:12:00,75.0,71.0,30.15,North,0,0.0,0.0,87,0.00,,,0.00,,2013-07-16 04:12:00,
2013-07-15 23:22:00,75.0,71.0,30.15,North,0,0.0,0.0,87,0.00,,,0.00,,2013-07-16 04:22:00,
2013-07-15 23:32:00,74.0,70.0,30.15,North,0,0.0,0.0,88,0.00,,,0.00,,2013-07-16 04:32:00,
2013-07-15 23:43:00,74.0,71.0,30.16,North,0,0.0,0.0,89,0.00,,,0.00,,2013-07-16 04:43:00,
2013-07-15 23:53:00,74.0,71.0,30.16,North,0,0.0,0.0,89,0.00,,,0.00,,2013-07-16 04:53:00,